Fascination — C6FM9 — position and weather

sailwx.info

Track history (hours):
 
Tides and Currents Weather Stations Pressure Air Temp Water Temp Dewpoint Dewpoint Depression Visibility Wind Speed Wind Dir Waves Ship Positions

Fascination

Operator: Carnival Cruise Lines

Last reported at 2017-May-27 01:55 UTC. Time now 2017-May-27 02:11 UTC.
Position N 17°47' W 063°11'.

Type: Ship. MMSI: 309682000.

Date/timePositionNaut miles runAvg speedWind from/ knotsBaromVisibWave heightAir tempDewpointWater temp
2017-May-27 01:55N 17°47' W 063°11'5 9.3
2017-May-27 01:26N 17°44' W 063°08'4 9.2
2017-May-27 01:00N 17°40' W 063°07'5 9.8
2017-May-27 00:29N 17°35' W 063°07'6 9.8
2017-May-26 23:54N 17°29' W 063°06'56 3.6
2017-May-26 08:27N 16°44' W 062°32'715.1
2017-May-26 08:00N 16°38' W 062°29'815.2
2017-May-26 07:30N 16°31' W 062°25'172 7.6
2017-May-25 09:00N 14°00' W 061°00'93 3.9 190 / 131022.310.8 27.022.627.0
2017-May-24 09:00N 13°06' W 059°42'192 8.4 250 / 271021.210.8 27.022.627.0
2017-May-23 10:00N 15°12' W 062°12'22821.9 260 / 221020.210.8
2017-May-22 23:34N 18°06' W 064°46'311.5
2017-May-22 23:20N 18°08' W 064°48'411.5
2017-May-22 23:00N 18°10' W 064°52'511.0
2017-May-22 22:30N 18°14' W 064°55'3 0.2
2017-May-22 09:56N 18°16' W 064°57'32 8.3
2017-May-22 06:00N 18°36' W 065°24'4212.4 190 / 131020.3 5.4 26.023.125.0
2017-May-22 02:36N 18°28' W 066°08'110.2
2017-May-22 02:30N 18°28' W 066°07'1 1.1
2017-May-22 01:53N 18°28' W 066°07'0 0.0
2017-May-22 01:29N 18°28' W 066°07'0 0.0
2017-May-22 00:50N 18°28' W 066°07'0 0.0
2017-May-22 00:26N 18°28' W 066°07'0 0.0
2017-May-21 23:49N 18°28' W 066°07'0 0.0
2017-May-21 23:28N 18°28' W 066°07'0 0.0
2017-May-21 22:55N 18°28' W 066°07'0 0.0
2017-May-21 22:25N 18°28' W 066°07'0 0.0
2017-May-21 21:58N 18°28' W 066°07'0 0.0
2017-May-21 21:24N 18°28' W 066°07'0 0.0
2017-May-21 21:00N 18°28' W 066°07'0 0.0
2017-May-21 20:30N 18°28' W 066°07'0 0.0
2017-May-21 20:00N 18°28' W 066°07'0 0.0
2017-May-21 19:17N 18°28' W 066°07'0 0.0
2017-May-21 18:59N 18°28' W 066°07'0 0.0
2017-May-21 18:29N 18°28' W 066°07'0 0.0
2017-May-21 17:59N 18°28' W 066°07'0 0.0
2017-May-21 17:29N 18°28' W 066°07'0 0.0
2017-May-21 16:58N 18°28' W 066°07'0 0.0
2017-May-21 16:07N 18°28' W 066°07'0 0.0
2017-May-21 15:58N 18°28' W 066°07'0 0.0
2017-May-21 15:28N 18°28' W 066°07'0 0.0
2017-May-21 14:58N 18°28' W 066°07'0 0.0
2017-May-21 14:00N 18°28' W 066°07'0 0.0
2017-May-21 13:27N 18°28' W 066°07'0 0.0
2017-May-21 13:00N 18°28' W 066°07'0 0.0
2017-May-21 12:17N 18°28' W 066°07'0 0.0
2017-May-21 11:56N 18°28' W 066°07'0 0.0
2017-May-21 11:29N 18°28' W 066°07'0 0.0
2017-May-21 10:59N 18°28' W 066°07'0 0.2
2017-May-21 10:28N 18°28' W 066°07'6810.6
2017-May-21 04:01N 18°10' W 064°57'115.5
2017-May-21 03:58N 18°10' W 064°56'8316.0
2017-May-20 22:46N 18°02' W 063°29'415.6
2017-May-20 22:29N 18°01' W 063°24'815.8
2017-May-20 21:58N 18°01' W 063°16'815.6
2017-May-20 21:29N 17°60' W 063°08'5 0.4
2017-May-20 10:25N 18°01' W 063°03'3 5.2
2017-May-20 09:56N 18°00' W 063°05'5 8.8
2017-May-20 09:20N 18°01' W 063°11'1030.2
2017-May-20 09:00N 18°00' W 063°00'131934.9 220 / 21 10.8
2017-May-20 08:59N 18°01' W 063°14'4 8.7
2017-May-20 08:30N 18°03' W 063°18'4 8.7
2017-May-20 08:00N 18°04' W 063°23'5 8.9
2017-May-20 07:29N 18°06' W 063°27'5 8.9
2017-May-20 06:58N 18°07' W 063°32'4 9.1
2017-May-20 06:29N 18°09' W 063°36'4 7.2
2017-May-20 05:58N 18°07' W 063°40'4 9.0
2017-May-20 05:30N 18°03' W 063°40'10 7.7
2017-May-20 04:12N 17°59' W 063°30'410.1
2017-May-20 03:48N 17°59' W 063°26'3 9.6
2017-May-20 03:29N 17°58' W 063°23'711.1
2017-May-20 02:53N 17°53' W 063°18'615.7
2017-May-20 02:29N 17°49' W 063°13'815.3
2017-May-20 02:00N 17°43' W 063°08'815.4
2017-May-20 01:30N 17°36' W 063°07'3 6.1
2017-May-20 01:00N 17°33' W 063°07'1 1.7
2017-May-20 00:29N 17°32' W 063°07'1 2.9
2017-May-20 00:00N 17°31' W 063°06'57 3.7
2017-May-19 08:41N 16°44' W 062°32'314.9
2017-May-19 08:31N 16°42' W 062°31'815.2
2017-May-19 08:00N 16°35' W 062°27'815.4
2017-May-19 07:31N 16°28' W 062°24'23 2.7
2017-May-18 23:00N 16°48' W 062°36'19213.7 090 / 331020.310.8 27.024.127.0
2017-May-18 09:00N 14°00' W 061°00'   180 / 201020.310.8 27.024.127.0
Track history (hours):
 
Tides and Currents Weather Stations Pressure Air Temp Water Temp Dewpoint Dewpoint Depression Visibility Wind Speed Wind Dir Waves Ship Positions

Fascination

Operator: Carnival Cruise Lines

Last reported at 2017-May-27 01:55 UTC. Time now 2017-May-27 02:11 UTC.
Position N 17°47' W 063°11'.

Type: Ship. MMSI: 309682000.

Date/timePositionNaut miles runAvg speedWind from/ knotsBaromVisibWave heightAir tempDewpointWater temp
2017-May-27 01:55N 17°47' W 063°11'5 9.3
2017-May-27 01:26N 17°44' W 063°08'4 9.2
2017-May-27 01:00N 17°40' W 063°07'5 9.8
2017-May-27 00:29N 17°35' W 063°07'6 9.8
2017-May-26 23:54N 17°29' W 063°06'56 3.6
2017-May-26 08:27N 16°44' W 062°32'715.1
2017-May-26 08:00N 16°38' W 062°29'815.2
2017-May-26 07:30N 16°31' W 062°25'172 7.6
2017-May-25 09:00N 14°00' W 061°00'93 3.9 190 / 131022.310.8 27.022.627.0
2017-May-24 09:00N 13°06' W 059°42'192 8.4 250 / 271021.210.8 27.022.627.0
2017-May-23 10:00N 15°12' W 062°12'22821.9 260 / 221020.210.8
2017-May-22 23:34N 18°06' W 064°46'311.5
2017-May-22 23:20N 18°08' W 064°48'411.5
2017-May-22 23:00N 18°10' W 064°52'511.0
2017-May-22 22:30N 18°14' W 064°55'3 0.2
2017-May-22 09:56N 18°16' W 064°57'32 8.3
2017-May-22 06:00N 18°36' W 065°24'4212.4 190 / 131020.3 5.4 26.023.125.0
2017-May-22 02:36N 18°28' W 066°08'110.2
2017-May-22 02:30N 18°28' W 066°07'1 1.1
2017-May-22 01:53N 18°28' W 066°07'0 0.0
2017-May-22 01:29N 18°28' W 066°07'0 0.0
2017-May-22 00:50N 18°28' W 066°07'0 0.0
2017-May-22 00:26N 18°28' W 066°07'0 0.0
2017-May-21 23:49N 18°28' W 066°07'0 0.0
2017-May-21 23:28N 18°28' W 066°07'0 0.0
2017-May-21 22:55N 18°28' W 066°07'0 0.0
2017-May-21 22:25N 18°28' W 066°07'0 0.0
2017-May-21 21:58N 18°28' W 066°07'0 0.0
2017-May-21 21:24N 18°28' W 066°07'0 0.0
2017-May-21 21:00N 18°28' W 066°07'0 0.0
2017-May-21 20:30N 18°28' W 066°07'0 0.0
2017-May-21 20:00N 18°28' W 066°07'0 0.0
2017-May-21 19:17N 18°28' W 066°07'0 0.0
2017-May-21 18:59N 18°28' W 066°07'0 0.0
2017-May-21 18:29N 18°28' W 066°07'0 0.0
2017-May-21 17:59N 18°28' W 066°07'0 0.0
2017-May-21 17:29N 18°28' W 066°07'0 0.0
2017-May-21 16:58N 18°28' W 066°07'0 0.0
2017-May-21 16:07N 18°28' W 066°07'0 0.0
2017-May-21 15:58N 18°28' W 066°07'0 0.0
2017-May-21 15:28N 18°28' W 066°07'0 0.0
2017-May-21 14:58N 18°28' W 066°07'0 0.0
2017-May-21 14:00N 18°28' W 066°07'0 0.0
2017-May-21 13:27N 18°28' W 066°07'0 0.0
2017-May-21 13:00N 18°28' W 066°07'0 0.0
2017-May-21 12:17N 18°28' W 066°07'0 0.0
2017-May-21 11:56N 18°28' W 066°07'0 0.0
2017-May-21 11:29N 18°28' W 066°07'0 0.0
2017-May-21 10:59N 18°28' W 066°07'0 0.2
2017-May-21 10:28N 18°28' W 066°07'6810.6
2017-May-21 04:01N 18°10' W 064°57'115.5
2017-May-21 03:58N 18°10' W 064°56'8316.0
2017-May-20 22:46N 18°02' W 063°29'415.6
2017-May-20 22:29N 18°01' W 063°24'815.8
2017-May-20 21:58N 18°01' W 063°16'815.6
2017-May-20 21:29N 17°60' W 063°08'5 0.4
2017-May-20 10:25N 18°01' W 063°03'3 5.2
2017-May-20 09:56N 18°00' W 063°05'5 8.8
2017-May-20 09:20N 18°01' W 063°11'1030.2
2017-May-20 09:00N 18°00' W 063°00'131934.9 220 / 21 10.8
2017-May-20 08:59N 18°01' W 063°14'4 8.7
2017-May-20 08:30N 18°03' W 063°18'4 8.7
2017-May-20 08:00N 18°04' W 063°23'5 8.9
2017-May-20 07:29N 18°06' W 063°27'5 8.9
2017-May-20 06:58N 18°07' W 063°32'4 9.1
2017-May-20 06:29N 18°09' W 063°36'4 7.2
2017-May-20 05:58N 18°07' W 063°40'4 9.0
2017-May-20 05:30N 18°03' W 063°40'10 7.7
2017-May-20 04:12N 17°59' W 063°30'410.1
2017-May-20 03:48N 17°59' W 063°26'3 9.6
2017-May-20 03:29N 17°58' W 063°23'711.1
2017-May-20 02:53N 17°53' W 063°18'615.7
2017-May-20 02:29N 17°49' W 063°13'815.3
2017-May-20 02:00N 17°43' W 063°08'815.4
2017-May-20 01:30N 17°36' W 063°07'3 6.1
2017-May-20 01:00N 17°33' W 063°07'1 1.7
2017-May-20 00:29N 17°32' W 063°07'1 2.9
2017-May-20 00:00N 17°31' W 063°06'57 3.7
2017-May-19 08:41N 16°44' W 062°32'314.9
2017-May-19 08:31N 16°42' W 062°31'815.2
2017-May-19 08:00N 16°35' W 062°27'815.4
2017-May-19 07:31N 16°28' W 062°24'23 2.7
2017-May-18 23:00N 16°48' W 062°36'19213.7 090 / 331020.310.8 27.024.127.0
2017-May-18 09:00N 14°00' W 061°00'   180 / 201020.310.8 27.024.127.0

Dump ship's entire track history